SCP
1 1 1 2 1 1 1 1 2 2 2 3 4 5 7 7 7 6 6 6 6 5 5 6 7 9 11 14 17 16 13 11 9 9 8 6 5 4 4 3 4 5 6 7
1 1 2 2 2 1 1 1 2 2 2 2 4 5 7 7 7 6 6 6 5 5 5 6 7 8 10 13 16 17 15 12 11 10 8 6 5 4 3 3 3 4 6 7
1 1 2 2 2 1 1 1 1 1 2 3 4 5 6 7 7 6 5 5 4 4 4 5 5 6 7 10 15 17 16 14 13 11 10 8 6 5 4 3 3 4 6 7
1 1 1 1 1 1 1 1 1 1 2 4 5 5 6 6 7 6 4 3 3 3 4 4 4 5 6 9 14 17 17 16 14 13 12 11 8 7 6 5 4 5 6 6
1 1 1 1 1 1 1 1 1 2 3 5 5 5 5 5 6 5 4 3 3 4 6 6 5 5 6 9 14 17 17 17 16 14 14 14 11 9 8 6 5 5 5 5
0 1 1 1 1 1 1 1 2 2 3 4 4 4 4 4 5 5 5 4 4 6 8 8 6 4 5 8 13 17 19 18 16 15 15 15 13 11 9 8 6 6 5 5
0 0 1 1 1 1 0 1 1 2 2 2 2 3 3 4 5 6 6 5 6 7 8 7 5 3 3 6 10 14 16 16 14 13 14 14 13 12 10 8 7 7 6 6
0 0 0 1 1 1 0 0 1 1 1 1 1 2 3 4 5 6 6 6 7 7 7 5 3 2 2 4 7 9 11 10 10 10 11 11 11 10 10 8 8 7 7 6
0 0 0 1 1 1 0 0 0 0 1 2 3 5 6 6 6 6 6 6 7 7 6 4 3 2 2 2 3 4 5 5 5 6 7 7 8 9 9 8 7 6 5 5
0 0 1 1 1 1 1 1 1 1 2 4 6 7 7 7 6 6 5 5 5 6 5 4 3 2 2 1 2 2 2 2 2 3 3 4 4 5 6 5 4 4 4 4
0 1 1 2 2 1 2 2 2 3 4 6 7 7 7 6 5 5 4 4 4 4 4 3 2 2 2 1 1 1 1 1 1 1 1 2 2 2 2 2 2 2 2 2
0 1 1 2 2 2 2 2 3 4 5 6 6 5 5 4 4 4 3 3 3 3 3 2 2 2 1 1 1 1 1 1 1 1 1 1 1 1 0 0 0 0 1 1
0 1 2 2 2 2 2 2 3 3 4 4 4 3 3 3 3 3 3 2 2 2 2 2 2 2 1 1 1 1 1 0 0 1 1 1 1 1 1 0 0 0 0 0
1 1 2 3 3 3 2 2 2 3 2 2 2 2 2 2 2 2 2 2 2 1 1 1 1 1 1 1 0 0 0 0 0 0 1 1 1 1 1 0 0 0 0 0
1 1 2 3 3 2 2 2 2 2 2 1 1 1 1 1 1 1 1 1 1 1 1 1 0 0 0 0 0 0 0 0 0 0 0 1 1 1 0 0 0 0 0 0
1 1 1 1 1 2 2 3 3 2 1 1 1 1 1 1 1 1 1 1 1 1 0 0 0 0 0 0 0 0 0 0 0 0 0 0 0 0 0 0 0 0 0 0
0 0 0 0 1 2 4 4 4 2 1 1 1 1 1 0 0 0 1 1 1 1 0 0 0 0 0 0 0 0 0 0 0 0 0 0 0 0 0 0 0 0 0 0
0 0 0 0 1 2 4 4 3 1 1 0 0 0 0 0 0 0 0 0 0 0 0 0 0 0 0 0 0 0 0 0 0 0 0 0 0 0 0 0 0 0 0 0
0 0 0 0 1 1 2 2 1 1 0 0 0 0 0 0 0 0 0 0 0 0 0 0 0 0 0 0 0 0 0 0 0 0 0 0 0 0 0 0 0 0 0 0
0 0 0 0 0 0 1 0 0 0 0 0 0 0 0 0 0 0 0 0 0 0 0 0 0 0 0 0 0 0 0 0 0 0 0 0 0 0 0 0 0 0 0 0
0 0 0 0 0 0 0 0 0 0 0 0 0 0 0 1 1 0 0 0 0 0 0 0 0 0 0 0 0 0 0 0 0 0 0 0 0 0 0 0 0 0 0 0
0 0 0 0 0 0 0 0 0 0 0 0 0 0 0 1 1 1 0 0 0 0 0 0 0 0 0 0 0 0 0 0 0 0 0 0 0 0 0 0 0 0 0 0
0 0 0 0 0 0 0 0 0 0 0 0 0 0 0 0 1 0 0 0 0 0 0 0 0 0 0 0 0 0 0 0 0 0 0 0 0 0 0 0 0 0 0 0
0 0 0 0 0 0 0 0 0 0 0 0 0 0 0 0 0 0 1 0 0 0 0 0 0 0 0 0 0 0 0 0 0 0 0 0 0 0 0 0 0 0 0 0
0 0 0 0 0 0 0 0 0 0 0 0 0 0 0 0 0 1 1 1 0 0 0 0 0 0 0 0 0 0 0 0 0 0 0 0 0 0 0 0 0 0 0 0
0 0 0 0 0 0 0 0 0 0 0 0 0 0 0 0 0 1 1 1 0 0 0 0 0 0 0 0 0 0 0 0 0 0 0 0 0 0 0 0 0 0 0 0
0 0 0 0 0 0 0 0 0 0 0 0 0 0 0 0 0 1 1 1 0 0 0 0 0 0 0 0 0 0 0 0 0 0 0 0 0 0 0 0 0 0 0 0
Wind_Speed
3 3 2 3 4 3 4 6 6 6 6 5 5 6 6 6 6 6 6 6 6 4 3 3 4 4 4 4 4 4 4 4 4 4 4 4 4 4 3 3 3 3 2 2
2 2 2 5 6 5 4 3 4 4 2 2 3 4 6 7 7 6 5 5 4 4 4 4 4 4 3 3 3 4 4 5 4 4 4 4 4 4 3 3 2 2 3 2
3 4 3 4 5 3 2 1 4 4 4 4 5 5 6 7 6 6 4 4 3 4 4 4 4 4 3 3 3 3 3 4 4 5 5 4 5 4 4 4 3 3 3 3
1 2 3 6 3 2 5 4 3 3 3 5 6 5 3 4 7 6 4 4 3 2 2 2 2 2 3 3 4 3 3 3 4 4 5 4 4 4 4 4 4 4 3 3
2 1 4 4 3 1 2 2 1 4 4 5 6 6 4 2 3 5 4 4 4 3 3 3 2 2 3 2 3 3 3 3 4 5 5 4 5 5 4 4 4 3 3 3
3 2 4 5 6 2 4 1 2 3 4 5 4 4 2 1 3 4 3 3 4 3 3 3 2 2 3 2 2 2 3 3 3 4 5 6 6 5 3 3 4 4 3 3
3 3 4 4 6 2 3 4 2 2 4 3 3 4 5 4 4 4 3 3 3 4 3 2 1 2 3 2 1 2 2 2 2 2 4 5 4 4 3 3 4 3 3 2
2 2 5 5 3 2 4 3 1 2 2 2 4 5 5 5 4 4 3 3 3 3 2 1 1 2 2 1 1 1 1 1 1 1 2 3 4 3 3 3 3 3 2 1
5 6 5 2 2 2 2 2 1 2 2 5 6 5 4 3 3 3 3 3 2 3 2 1 1 2 2 1 0 1 1 1 1 1 1 2 3 3 3 3 3 2 2 2
1 3 1 0 1 2 1 1 1 3 4 5 5 5 4 4 3 2 2 2 2 3 3 1 0 1 1 1 1 2 2 1 1 1 1 1 1 2 2 2 2 2 3 3
1 2 2 2 1 1 2 2 2 3 3 5 6 5 5 4 3 3 2 1 2 3 3 2 1 1 0 1 2 2 1 1 1 1 1 1 1 1 1 2 3 4 3 3
3 4 2 3 3 1 2 1 1 3 3 3 5 5 5 4 3 3 3 2 2 2 2 2 2 1 0 0 2 2 1 1 1 1 1 1 2 2 4 2 1 2 4 4
4 4 3 3 2 1 2 1 1 3 5 4 3 4 4 3 2 3 2 2 2 2 2 2 2 0 0 1 1 2 1 1 0 1 1 1 2 2 1 3 3 1 1 3
1 0 1 1 1 1 1 0 1 2 4 5 4 4 4 3 2 3 3 3 2 2 2 2 2 1 2 2 2 2 1 1 1 1 1 1 1 2 2 2 1 1 1 1
2 1 2 1 1 1 1 2 4 3 4 4 4 4 4 4 3 2 2 2 2 2 1 1 2 2 2 2 2 2 1 1 1 1 1 1 1 2 2 2 2 1 0 1
3 2 1 2 2 1 1 3 4 3 3 4 4 3 3 3 3 2 2 2 2 2 2 2 2 3 2 2 2 1 1 1 1 1 1 1 1 1 1 1 1 1 1 2
1 2 2 1 1 2 2 3 4 4 3 4 4 4 3 2 1 1 1 2 2 3 3 3 3 3 2 2 2 1 1 1 1 1 1 2 1 1 1 1 1 1 2 2
2 2 2 2 2 2 2 1 2 3 3 3 4 4 3 3 3 3 2 2 1 1 2 3 3 3 2 2 2 2 1 1 1 1 1 1 1 1 1 1 2 2 1 1
1 0 1 1 1 2 2 2 2 2 2 3 4 3 3 3 3 3 2 2 2 2 3 3 4 4 3 3 2 2 2 2 2 2 2 2 1 1 1 1 1 1 1 1
1 1 2 1 1 1 1 2 2 2 1 2 3 2 1 1 2 2 2 2 3 4 3 3 4 3 3 3 3 2 2 2 2 2 2 2 2 1 1 1 2 2 1 2
2 2 2 2 2 1 2 3 3 2 1 1 2 2 2 2 2 2 2 2 3 2 2 4 3 3 3 3 3 2 2 2 2 2 2 2 2 2 2 2 2 2 2 2
2 2 2 2 2 1 0 1 2 2 2 1 1 1 2 2 2 2 3 3 3 3 2 2 2 3 3 3 2 2 2 2 2 2 2 2 2 2 2 2 2 2 2 2
1 1 1 1 1 1 0 1 1 1 1 2 2 2 3 3 3 3 2 2 2 3 2 3 4 4 4 3 2 2 3 3 2 2 3 3 3 3 3 3 2 2 2 2
0 1 0 1 1 1 1 1 1 1 2 2 2 3 2 2 2 2 3 3 3 3 2 3 5 5 4 2 2 2 2 3 3 3 3 2 2 2 2 2 2 2 2 2
1 1 0 0 0 1 2 1 1 1 1 1 1 1 1 2 3 2 2 2 3 2 2 3 4 4 3 2 3 3 3 3 2 2 2 2 3 3 3 3 3 2 2 2
1 1 2 3 3 2 2 1 1 1 1 1 1 1 1 0 1 1 1 2 2 2 2 2 2 3 2 2 3 3 3 3 3 2 2 2 3 3 2 2 3 3 3 3
1 1 1 1 1 1 1 1 1 1 1 1 1 1 1 1 1 1 1 1 1 1 1 1 2 2 2 2 2 2 2 2 2 2 2 2 2 3 3 3 3 3 3 3
Wind_Direction
218 230 241 269 273 248 200 194 197 212 190 205 186 164 148 133 128 128 130 130 137 145 149 151 151 157 161 170 172 169 166 170 181 180 177 176 179 181 181 183 196 197 177 185
317 301 329 311 293 258 230 195 175 157 213 216 133 114 118 128 130 129 136 146 147 144 149 159 164 165 162 168 167 155 162 177 179 173 174 180 186 182 184 190 198 181 169 175
291 302 357 296 283 242 165 145 162 179 205 134 114 129 143 142 133 132 143 145 147 151 168 174 178 164 167 169 153 151 164 175 178 179 183 191 189 182 192 197 191 189 187 180
234 15 239 244 290 62 97 61 72 106 135 133 142 127 106 135 138 138 140 143 140 151 165 151 143 144 157 153 147 160 173 183 187 186 190 192 186 187 199 198 190 192 194 193
133 198 266 304 337 24 105 30 38 112 112 108 111 83 45 40 117 135 140 145 137 138 134 118 123 130 118 136 151 158 176 193 195 191 191 191 193 196 196 190 190 191 184 186
139 169 232 266 293 290 99 8 317 118 136 143 116 117 215 170 116 110 117 135 133 123 102 99 107 109 106 120 139 189 207 206 198 192 191 193 194 191 187 180 186 178 174 180
170 202 249 275 300 10 123 226 266 143 154 160 167 182 172 148 124 124 130 132 127 121 116 139 139 117 118 134 198 231 226 204 189 190 188 182 177 174 168 167 164 164 167 180
150 183 252 301 14 108 209 211 165 148 158 136 125 122 132 128 129 134 125 116 124 125 132 151 129 113 107 158 249 258 137 119 136 161 175 159 155 163 164 162 161 168 165 177
187 212 236 258 178 216 158 142 149 135 135 131 129 138 139 134 145 152 147 145 149 143 136 122 112 127 141 236 223 96 86 92 120 123 142 143 147 160 158 160 172 184 181 193
239 272 275 26 65 34 45 94 164 133 136 139 139 148 143 141 151 160 160 155 147 135 131 131 148 133 183 199 125 108 101 90 106 125 122 101 120 144 155 171 180 181 182 192
263 289 355 2 39 68 40 46 103 125 134 148 144 149 150 149 160 172 167 159 144 149 161 170 157 153 197 140 113 109 115 112 109 127 140 100 88 119 171 196 198 189 193 191
229 238 213 255 268 148 98 71 139 136 125 141 150 149 145 151 162 164 160 158 152 149 162 177 164 177 236 154 128 122 112 106 113 114 114 111 99 41 22 39 61 146 187 194
223 247 229 240 248 198 159 181 195 167 154 152 152 143 141 149 166 154 142 143 159 167 168 165 150 168 244 161 126 123 136 155 133 111 131 146 134 123 65 9 19 34 173 183
254 150 312 276 249 210 121 165 144 135 135 136 133 126 128 130 135 139 155 169 167 159 163 167 161 216 221 173 144 143 152 156 149 176 176 177 169 155 160 173 192 314 312 209
301 255 217 227 48 36 53 85 93 107 117 117 119 124 127 133 148 170 183 168 149 152 180 180 191 235 215 160 148 165 171 180 183 188 180 178 173 162 166 183 189 196 228 319
311 324 78 99 90 69 109 112 112 114 125 128 126 135 143 155 170 180 180 158 156 198 215 204 217 224 191 161 150 168 193 193 185 182 171 147 137 151 165 180 190 196 204 211
23 355 8 68 73 68 90 125 138 133 127 138 147 143 132 132 144 180 203 197 198 214 216 206 212 196 172 158 158 175 187 193 206 187 173 173 166 172 177 172 174 188 221 219
190 199 185 155 134 109 98 112 137 136 146 155 140 138 140 155 179 205 217 213 208 223 229 212 194 175 174 171 167 173 176 181 186 190 186 182 176 164 157 169 179 188 222 206
240 165 133 127 124 124 138 148 141 132 134 139 142 156 176 189 196 202 192 170 183 218 239 215 184 173 184 195 176 168 172 179 189 201 192 190 174 171 175 179 186 196 194 195
120 112 128 122 100 107 125 136 132 123 131 137 134 136 156 204 193 181 184 202 219 222 222 201 179 180 192 198 188 176 183 184 186 191 185 181 180 189 198 198 196 192 193 198
75 69 77 90 89 112 150 151 149 154 161 148 150 173 189 205 199 180 173 238 262 234 202 189 183 192 195 197 193 184 183 182 182 182 186 191 192 189 195 205 203 198 200 206
72 78 84 85 83 68 152 141 146 159 170 188 190 195 195 205 214 212 217 222 236 225 198 192 196 202 200 194 190 194 197 190 191 186 186 189 190 191 197 202 206 209 211 205
37 59 85 100 134 217 244 146 153 175 193 205 207 210 215 219 198 189 238 253 231 218 208 209 206 203 198 194 195 200 201 202 202 201 196 195 196 194 196 201 203 202 203 205
356 344 345 14 47 31 340 292 223 215 217 219 225 220 210 213 233 226 215 218 222 217 217 218 206 203 199 198 202 205 206 210 208 206 200 198 197 196 199 197 195 197 197 195
252 261 263 68 252 253 246 248 260 264 256 245 248 250 236 198 196 212 207 211 217 213 226 222 207 201 193 198 204 208 209 209 200 194 194 191 194 195 198 197 197 194 189 189
249 253 242 226 224 232 231 220 229 248 239 234 258 257 258 264 202 182 187 211 221 218 217 211 204 199 197 199 197 195 195 192 192 194 196 196 197 194 193 193 186 180 176 171
274 272 265 290 283 259 235 213 202 222 214 198 223 243 217 203 219 214 185 211 235 245 244 222 204 190 185 183 181 184 181 183 184 184 196 202 197 189 184 176 169 166 166 160